Pine Bluff, AR

3:13 PM CDT on April 22, 2018 (GMT -0500)
Grider

Weather History for KPBF - August, 2013

Change the Weather History Date:

Saturday, August 31, 2013

  Actual Average Record
Temperature  
Mean Temperature 87 °F 79 °F  
Max Temperature 100 °F 90 °F 106 °F (2000)
Min Temperature 74 °F 68 °F 55 °F (1946)
Degree Days  
Heating Degree Days 0 0  
Month to date heating degree days 0 0  
Since 1 June heating degree days 0 0  
Since 1 July heating degree days 0 0  
Cooling Degree Days 22 14  
Month to date cooling degree days 507 501  
Year to date cooling degree days 1664 1758  
Since 1 June cooling degree days 1397 1451  
Growing Degree Days 36 (Base 50)    
Moisture  
Dew Point 69 °F    
Average Humidity 57    
Maximum Humidity 79    
Minimum Humidity 35    
Precipitation  
Precipitation 0.00 in 0.07 in 4.61 in (2012)
Month to date precipitation 2.96 2.48  
Year to date precipitation 33.63 33.19  
Snow  
Snow 0.00 in 0.00 in - ()
Month to date snowfall 0.0 0.0  
Since 1 June snowfall 0.0 0.0  
Since 1 July snowfall 0.0 0.0  
Snow Depth 0.00 in    
Sea Level Pressure  
Sea Level Pressure 29.88 in    
Wind  
Wind Speed 5 mph (SSW)    
Max Wind Speed 12 mph    
Max Gust Speed 15 mph    
Visibility 10 miles    
Events      
T = Trace of Precipitation, MM = Missing Value Source: NWS Daily Summary

Daily Weather History Graph

Daily Weather History Graph

Search for Another Location

Airport or City:

Astronomy

Aug. 31, 2013 Rise Set
Actual Time 6:40 AM CDT 7:34 PM CDT
Civil Twilight 6:15 AM CDT 8:00 PM CDT
Nautical Twilight 5:44 AM CDT 8:30 PM CDT
Astronomical Twilight 5:13 AM CDT 9:01 PM CDT
Moon 2:17 AM CDT (8/31) 4:26 PM CDT (8/31)
Length of Visible Light 13h 45m
Length of Day
12h 53m
Waning Crescent, 21% of the Moon is Illuminated
Aug 31
Waning Crescent
Sep 5
New
Sep 12
First Quarter
Sep 19
Full
Sep 26
Last Quarter

Hourly Weather History & Observations

Time (CDT) Temp. Heat Index Dew Point Humidity Pressure Visibility Wind Dir Wind Speed Gust Speed Precip Events Conditions
12:53 AM 79.0 °F - 68.0 °F 69% 29.90 in 10.0 mi SSW 5.8 mph - N/A   Clear
1:53 AM 78.1 °F - 68.0 °F 71% 29.90 in 10.0 mi South 5.8 mph - N/A   Clear
2:53 AM 78.1 °F - 68.0 °F 71% 29.91 in 10.0 mi SW 3.5 mph - N/A   Clear
3:53 AM 77.0 °F - 66.9 °F 71% 29.90 in 10.0 mi SW 4.6 mph - N/A   Clear
4:53 AM 75.9 °F - 66.9 °F 74% 29.90 in 9.0 mi SW 4.6 mph - N/A   Clear
5:53 AM 75.0 °F - 66.9 °F 76% 29.91 in 9.0 mi WSW 3.5 mph - N/A   Clear
6:53 AM 73.9 °F - 66.9 °F 79% 29.91 in 7.0 mi SW 3.5 mph - N/A   Clear
7:53 AM 75.9 °F - 68.0 °F 76% 29.94 in 7.0 mi Calm Calm - N/A   Clear
8:53 AM 81.0 °F 84.4 °F 70.0 °F 69% 29.94 in 8.0 mi WSW 5.8 mph - N/A   Clear
9:53 AM 86.0 °F 91.5 °F 71.1 °F 61% 29.93 in 9.0 mi WSW 8.1 mph - N/A   Clear
10:53 AM 90.0 °F 96.4 °F 71.1 °F 54% 29.93 in 10.0 mi West 8.1 mph - N/A   Clear
11:53 AM 91.9 °F 98.4 °F 71.1 °F 50% 29.92 in 10.0 mi Variable 4.6 mph - N/A   Clear
12:53 PM 93.9 °F 100.3 °F 70.0 °F 46% 29.90 in 10.0 mi Variable 3.5 mph - N/A   Clear
1:53 PM 97.0 °F 102.2 °F 68.0 °F 39% 29.88 in 10.0 mi SE 10.4 mph - N/A   Clear
2:53 PM 98.1 °F 103.0 °F 68.0 °F 37% 29.85 in 10.0 mi SSE 5.8 mph - N/A   Clear
3:53 PM 96.1 °F 99.3 °F 66.0 °F 37% 29.83 in 10.0 mi WSW 4.6 mph - N/A   Clear
4:53 PM 99.0 °F 102.9 °F 66.0 °F 34% 29.81 in 10.0 mi SE 3.5 mph - N/A   Clear
5:53 PM 99.0 °F 102.9 °F 66.0 °F 34% 29.82 in 10.0 mi ESE 4.6 mph - N/A   Scattered Clouds
6:53 PM 93.9 °F 102.1 °F 72.0 °F 49% 29.82 in 10.0 mi East 4.6 mph - N/A   Clear
7:53 PM 87.1 °F 92.8 °F 71.1 °F 59% 29.83 in 10.0 mi ESE 9.2 mph - N/A   Clear
8:53 PM 81.0 °F 84.4 °F 70.0 °F 69% 29.83 in 10.0 mi Calm Calm - N/A   Clear
9:53 PM 82.0 °F 85.5 °F 69.1 °F 65% 29.84 in 10.0 mi SSW 3.5 mph - N/A   Clear
10:53 PM 81.0 °F 84.1 °F 69.1 °F 67% 29.83 in 10.0 mi Calm Calm - N/A   Clear
11:53 PM 78.1 °F - 70.0 °F 76% 29.83 in 10.0 mi SSE 5.8 mph - N/A   Clear